Change the Weather History Date:

Sunday, August 11, 2013

  Actual Average Record
Temperature  
Mean Temperature 80 °F -  
Max Temperature 91 °F 89 °F 103 °F (1954)
Min Temperature 69 °F 66 °F 55 °F (1967)
Cooling Degree Days 14    
Growing Degree Days 30 (Base 50)    
Moisture  
Dew Point 72 °F    
Average Humidity 84    
Maximum Humidity 100    
Minimum Humidity 55    
Precipitation  
Precipitation 0.01 in - - ()
Sea Level Pressure  
Sea Level Pressure 30.11 in    
Wind  
Wind Speed 3 mph (South)    
Max Wind Speed 9 mph    
Max Gust Speed -    
Visibility 8 miles    
Events Fog , Rain , Thunderstorm    
Averages and records for this station are not official NWS values.
T = Trace of Precipitation, MM = Missing Value Source: NWS Daily Summary

Daily Weather History Graph

Daily Weather History Graph

Search for Another Location

Airport or City:

Trip Planner

Search our weather history database for the weather conditions in past years. The results will help you decide how hot, cold, wet, or windy it might be!

Date:

Astronomy

Aug. 11, 2013 Rise Set
Actual Time 6:05 AM CDT 7:39 PM CDT
Civil Twilight 5:38 AM CDT 8:06 PM CDT
Nautical Twilight 5:06 AM CDT 8:38 PM CDT
Astronomical Twilight 4:32 AM CDT 9:12 PM CDT
Moon 10:38 AM CDT (8/11) 10:10 PM CDT (8/11)
Length of Visible Light 14h 28m
Length of Day
13h 34m
Waxing Crescent, 22% of the Moon is Illuminated
Aug 11
Waxing Crescent
Aug 14
First Quarter
Aug 20
Full
Aug 28
Last Quarter
Sep 5
New

Hourly Weather History & Observations

Time (CDT) Temp. Heat Index Dew Point Humidity Pressure Visibility Wind Dir Wind Speed Gust Speed Precip Events Conditions
12:53 AM 72.0 °F - 71.1 °F 97% 30.10 in 6.0 mi ESE 3.5 mph - N/A   Clear
1:09 AM 71.6 °F - 71.6 °F 100% 30.12 in 3.0 mi Calm Calm - 0.01 in   Scattered Clouds
1:12 AM 71.6 °F - 69.8 °F 94% 30.12 in 1.5 mi Calm Calm - 0.01 in   Mostly Cloudy
1:21 AM 71.6 °F - 69.8 °F 94% 30.12 in 0.5 mi Calm Calm - 0.01 in Fog Fog
1:53 AM 70.0 °F - 69.1 °F 97% 30.10 in 1.8 mi Calm Calm - 0.01 in   Mostly Cloudy
2:10 AM 69.8 °F - 69.8 °F 100% 30.11 in 0.8 mi Calm Calm - N/A   Mist
2:53 AM 71.1 °F - 70.0 °F 96% 30.10 in 2.0 mi Calm Calm - N/A   Mostly Cloudy
2:58 AM 69.8 °F - 69.8 °F 100% 30.12 in 4.0 mi Calm Calm - N/A   Scattered Clouds
3:53 AM 70.0 °F - 70.0 °F 100% 30.11 in 8.0 mi Calm Calm - N/A   Partly Cloudy
4:53 AM 70.0 °F - 68.0 °F 93% 30.12 in 6.0 mi Calm Calm - N/A   Clear
5:53 AM 70.0 °F - 69.1 °F 97% 30.12 in 9.0 mi Calm Calm - N/A   Clear
6:53 AM 72.0 °F - 70.0 °F 93% 30.13 in 9.0 mi ESE 3.5 mph - N/A   Clear
7:53 AM 75.0 °F - 73.0 °F 94% 30.14 in 10.0 mi SE 4.6 mph - N/A   Clear
8:53 AM 79.0 °F - 73.9 °F 84% 30.14 in 10.0 mi Variable 4.6 mph - N/A   Clear
9:53 AM 82.0 °F 88.6 °F 75.0 °F 79% 30.15 in 10.0 mi South 5.8 mph - N/A   Clear
10:53 AM 86.0 °F 96.0 °F 75.9 °F 72% 30.14 in 10.0 mi SW 5.8 mph - N/A   Partly Cloudy
11:53 AM 88.0 °F 96.5 °F 73.9 °F 63% 30.13 in 10.0 mi Variable 5.8 mph - N/A   Partly Cloudy
12:53 PM 88.0 °F 97.5 °F 75.0 °F 65% 30.11 in 10.0 mi SSE 4.6 mph - N/A   Clear
1:53 PM 89.1 °F 99.1 °F 75.0 °F 63% 30.09 in 10.0 mi South 5.8 mph - N/A   Scattered Clouds
2:53 PM 90.0 °F 100.2 °F 75.0 °F 61% 30.08 in 10.0 mi South 9.2 mph - N/A   Partly Cloudy
3:53 PM 90.0 °F 96.9 °F 72.0 °F 55% 30.06 in 10.0 mi Variable 6.9 mph - N/A   Clear
4:53 PM 87.1 °F 93.6 °F 72.0 °F 61% 30.06 in 10.0 mi SW 6.9 mph - N/A   Scattered Clouds
5:49 PM 78.8 °F - 69.8 °F 74% 30.09 in 10.0 mi WNW 8.1 mph - 0.00 in Rain , Thunderstorm Light Rain
5:53 PM 79.0 °F - 69.1 °F 72% 30.07 in 10.0 mi WNW 9.2 mph - 0.00 in Thunderstorm Mostly Cloudy
6:04 PM 78.8 °F - 69.8 °F 74% 30.09 in 10.0 mi NW 9.2 mph - N/A   Mostly Cloudy
6:53 PM 78.1 °F - 72.0 °F 81% 30.09 in 10.0 mi Calm Calm - N/A   Clear
7:53 PM 77.0 °F - 72.0 °F 84% 30.10 in 10.0 mi Calm Calm - N/A   Partly Cloudy
8:53 PM 75.0 °F - 72.0 °F 90% 30.11 in 10.0 mi Calm Calm - N/A   Clear
9:53 PM 75.0 °F - 72.0 °F 90% 30.11 in 10.0 mi Calm Calm - N/A   Clear
10:53 PM 73.9 °F - 72.0 °F 93% 30.10 in 10.0 mi SE 3.5 mph - N/A   Clear
11:53 PM 73.9 °F - 72.0 °F 93% 30.10 in 10.0 mi Calm Calm - N/A   Clear